Regional Weather Roundup
Issued by NWS

Home | Current Version | Previous Version | Text Only | Print | Product List | Glossary On
Versions: 1 2 3 4 5 6 7 8 9 10 11 12 13 14 15 16 17 18 19 20 21 22 23 24 25 26 27 28 29 30 31 32 33 34 35 36 37 38 39 40 41 42 43 44 45 46 47 48 49 50
000
ASUS44 KBMX 281110
RWRAL

ALABAMA REGIONAL WEATHER ROUNDUP
NATIONAL WEATHER SERVICE BIRMINGHAM AL
500 AM CST TUE FEB 28 2017

NOTE: "FAIR" INDICATES FEW OR NO CLOUDS BELOW 12,000 FEET
WITH NO SIGNIFICANT WEATHER AND/OR OBSTRUCTIONS TO VISIBILITY.

THE REMARK "TC" DENOTES TEMPERATURE IN DEGREES CELSIUS.

ALZ001>011-014-016>018-020-281200-
NORTH ALABAMA

CITY           SKY/WX    TMP DP  RH WIND       PRES   REMARKS
MUSCLE SHOALS    N/A    N/A N/A N/A MISG      30.14F
HUNTSVILLE     CLOUDY    56  55  97 S10       30.17S
DECATUR        CLOUDY    56  56 100 S12       30.17F
HALEYVILLE     LGT RAIN  56  56 100 S13G20    30.17F FOG
GADSDEN        FOG       51  51 100 E5        30.25F VSB 3/4
$$

ALZ012-013-022-023-030>036-040>044-281200-
WEST CENTRAL ALABAMA

CITY           SKY/WX    TMP DP  RH WIND       PRES   REMARKS
TUSCALOOSA     CLOUDY    60  57  89 SE10      30.18S
$$

ALZ015-024>027-033>036-040>044-281200-
CENTRAL ALABAMA

CITY           SKY/WX    TMP DP  RH WIND       PRES   REMARKS
BIRMINGHAM     CLOUDY    57  56  96 SE14      30.21F
MONTGOMERY     CLOUDY    57  53  86 E8        30.23S FOG
SHELBY CO ARPT CLOUDY    56  56 100 SE7       30.21F
MAXWELL AFB    CLOUDY    57  57 100 NE6       30.22S
GREENVILLE     FAIR      56  54  93 VRB5      30.20S
$$

ALZ019-021-028-029-037-038-045>048-281200-
EAST CENTRAL ALABAMA

CITY           SKY/WX    TMP DP  RH WIND       PRES   REMARKS
ANNISTON       CLOUDY    54  53  97 NE5       30.26R
ALEXANDER CITY FOG       54  54 100 CALM      30.25S VSB 3/4
AUBURN         LGT RAIN  55  55 100 E7        30.26S VSB 1/2
$$

ALZ051>064-281200-
SOUTHWEST ALABAMA

CITY           SKY/WX    TMP DP  RH WIND       PRES   REMARKS
MOBILE         FOG       65  64  97 SE7       30.16S VSB 1
BROOKLEY FIELD CLOUDY    66  65  96 E10       30.16S FOG
EVERGREEN      CLOUDY    59  57  93 E3        30.20S
$$

ALZ049-050-065>069-281200-
SOUTHEAST ALABAMA

CITY           SKY/WX    TMP DP  RH WIND       PRES   REMARKS
DOTHAN         CLEAR     54  54 100 E5        30.26F
OZARK          CLOUDY    55  55 100 E6        30.22S
TROY           CLEAR     54  54 100 E3        30.24R FOG
EUFAULA        CLOUDY    58  57  97 E3        30.24R
$$



USA.gov is the U.S. government's official web portal to all federal, state and local government web resources and services.